CW5072 Palm Harbor FL US current weather conditions

sailwx.info

Wind from 117

Air temperature 25.0° C
Dewpoint 24.5° C

Last reported at 2019-Jul-17 04:03 UTC.
Time now 2019-Jul-17 04:22 UTC

Location: N 28°05' W 082°43'.
View on Google Maps.

See reports from other nearby stations

  
Tides and Currents Weather Stations Pressure Air Temp Water Temp Dewpoint Dewpoint Depression Visibility Wind Speed Wind Dir Waves Ship Positions
date/time (UTC)wind fromknots sea level pressurealtimeterstation pressurevisibilityair tempwater tempwave heightnotes
2019-Jul-17 04:03 117 25.0
2019-Jul-17 03:53 117 24.4
2019-Jul-17 03:43 112 24.4
2019-Jul-17 03:33 112 24.4
2019-Jul-17 03:23 111 24.4
2019-Jul-17 03:13 111 24.4
2019-Jul-17 03:03 111 24.4
2019-Jul-17 02:53 111 24.4
2019-Jul-17 02:43 111 24.4
2019-Jul-17 02:33 111 24.4
2019-Jul-17 02:23 057 24.4
2019-Jul-17 02:13 053 25.0
2019-Jul-17 02:03 053 25.0
2019-Jul-17 01:53 053 25.0
2019-Jul-17 01:43 053 25.0
2019-Jul-17 01:33 052 25.0
2019-Jul-17 01:23 051 25.0
2019-Jul-17 01:13 086 25.6
2019-Jul-17 01:03 093 25.0
2019-Jul-17 00:53 091 25.6
2019-Jul-17 00:43 144 27.8
2019-Jul-17 00:33 310 29.4
2019-Jul-17 00:23 227 0 gusting 5 31.7
2019-Jul-17 00:13 092 31.7
2019-Jul-17 00:03 295 31.7
2019-Jul-16 23:53 360 31.7
2019-Jul-16 23:43 317 31.7
2019-Jul-16 23:33 308 31.7
2019-Jul-16 23:23 317 0 gusting 3 31.7
2019-Jul-16 23:13 260 32.2
2019-Jul-16 23:03 282 31.7
2019-Jul-16 22:53 288 31.7
2019-Jul-16 22:43 300 31.7
2019-Jul-16 22:33 294 0 gusting 4 32.2
2019-Jul-16 22:23 321 32.2
2019-Jul-16 22:13 325 32.2
2019-Jul-16 22:03 291 32.8
2019-Jul-16 21:53 331 32.8
2019-Jul-16 21:43 285 32.2
2019-Jul-16 21:33 282 32.8
2019-Jul-16 21:23 332 0 gusting 6 33.3
2019-Jul-16 21:13 296 33.3
2019-Jul-16 21:03 294 33.3
2019-Jul-16 20:53 338 32.8
2019-Jul-16 20:43 280 32.8
2019-Jul-16 20:33 244 0 gusting 8 33.3
2019-Jul-16 20:23 003 0 gusting 6 32.8
2019-Jul-16 20:13 042 32.8
2019-Jul-16 20:03 317 33.3
2019-Jul-16 19:53 256 32.8
2019-Jul-16 19:43 263 32.2
2019-Jul-16 19:33 266 32.2
2019-Jul-16 19:23 267 0 gusting 4 31.7
2019-Jul-16 19:13 273 32.2
2019-Jul-16 19:03 266 32.2
2019-Jul-16 18:53 274 0 gusting 2 32.8
2019-Jul-16 18:43 258 33.3
2019-Jul-16 18:33 270 34.4
2019-Jul-16 18:23 300 34.4
2019-Jul-16 18:13 345 35.0
2019-Jul-16 18:03 050 35.0
2019-Jul-16 17:53 041 35.0
2019-Jul-16 17:43 037 35.0
2019-Jul-16 17:33 062 35.0
2019-Jul-16 17:23 344 34.4
2019-Jul-16 17:13 283 35.0
2019-Jul-16 17:03 067 34.4
2019-Jul-16 16:53 319 34.4
2019-Jul-16 16:43 103 33.9
2019-Jul-16 16:33 148 34.4
2019-Jul-16 16:23 283 34.4
2019-Jul-16 16:13 055 33.9
2019-Jul-16 16:03 064 33.3
2019-Jul-16 15:53 175 33.3
2019-Jul-16 15:43 038 33.3
2019-Jul-16 15:33 219 32.2
2019-Jul-16 15:23 219 32.2
2019-Jul-16 15:13 223 32.2
2019-Jul-16 15:03 238 32.2
2019-Jul-16 14:53 141 32.2
2019-Jul-16 14:43 161 31.7
2019-Jul-16 14:33 238 31.7
2019-Jul-16 14:23 208 31.1
2019-Jul-16 14:13 236 31.1
2019-Jul-16 14:03 202 31.1
2019-Jul-16 13:53 201 30.6
2019-Jul-16 13:43 210 0 gusting 3 30.0
2019-Jul-16 13:33 192 30.0
2019-Jul-16 13:23 207 30.0
2019-Jul-16 13:13 227 29.4
2019-Jul-16 13:03 227 29.4
2019-Jul-16 12:53 205 28.9
2019-Jul-16 12:43 218 28.9
2019-Jul-16 12:33 177 28.3
2019-Jul-16 12:23 175 27.8
2019-Jul-16 12:13 175 27.2
2019-Jul-16 12:03 174 26.7
2019-Jul-16 11:53 174 26.1
2019-Jul-16 11:43 174 25.6
2019-Jul-16 11:33 174 25.0
2019-Jul-16 11:23 173 25.0
2019-Jul-16 11:13 174 25.0
2019-Jul-16 11:03 174 25.0
2019-Jul-16 10:53 174 25.0
2019-Jul-16 10:43 174 25.0
2019-Jul-16 10:33 174 25.0
2019-Jul-16 10:23 174 25.0
2019-Jul-16 10:13 174 25.0
2019-Jul-16 10:03 174 25.0
2019-Jul-16 09:53 174 25.0
2019-Jul-16 09:43 174 25.0
2019-Jul-16 09:33 174 25.0
2019-Jul-16 09:23 174 25.0
2019-Jul-16 09:13 174 25.0
2019-Jul-16 09:03 174 25.0
2019-Jul-16 08:53 174 25.0
2019-Jul-16 08:43 174 25.6
2019-Jul-16 08:33 174 25.6
2019-Jul-16 08:23 174 25.6
2019-Jul-16 08:13 174 25.6
2019-Jul-16 08:03 174 25.6
2019-Jul-16 07:53 174 25.6
2019-Jul-16 07:43 174 25.6
2019-Jul-16 07:33 174 25.6
2019-Jul-16 07:23 174 25.6
2019-Jul-16 07:13 174 25.6
2019-Jul-16 07:03 174 26.1
2019-Jul-16 06:53 174 26.1
2019-Jul-16 06:43 174 26.1
2019-Jul-16 06:33 175 26.1
2019-Jul-16 06:23 175 26.1
2019-Jul-16 06:13 175 26.1
2019-Jul-16 06:03 175 26.1
2019-Jul-16 05:53 175 26.1
2019-Jul-16 05:43 175 26.1
2019-Jul-16 05:33 175 26.1
2019-Jul-16 05:23 175 26.1
2019-Jul-16 05:13 175 26.1
2019-Jul-16 05:03 175 26.1
2019-Jul-16 04:53 175 26.7
2019-Jul-16 04:43 175 26.7
2019-Jul-16 04:33 175 26.7
2019-Jul-16 04:23 175 26.7
2019-Jul-16 04:13 175 26.7
2019-Jul-16 04:03 178 26.7
2019-Jul-16 03:53 178 26.7
2019-Jul-16 03:43 178 26.7
2019-Jul-16 03:33 178 26.7
2019-Jul-16 03:23 178 27.2
2019-Jul-16 03:13 178 27.2
2019-Jul-16 03:03 178 27.2
2019-Jul-16 02:53 178 27.2
2019-Jul-16 02:43 178 27.2
2019-Jul-16 02:33 178 27.8
2019-Jul-16 02:23 178 27.8
2019-Jul-16 02:13 178 27.8
2019-Jul-16 02:03 178 28.3
2019-Jul-16 01:53 093 28.3
2019-Jul-16 01:43 093 28.3
2019-Jul-16 01:33 093 28.3
2019-Jul-16 01:23 092 28.3
2019-Jul-16 01:13 093 28.9
2019-Jul-16 01:03 092 28.9
2019-Jul-16 00:53 093 28.9
2019-Jul-16 00:43 108 28.9
2019-Jul-16 00:33 106 29.4
2019-Jul-16 00:23 106 29.4
2019-Jul-16 00:13 104 29.4
2019-Jul-16 00:03 104 30.0
2019-Jul-15 23:53 132 30.0
2019-Jul-15 23:43 121 30.6
2019-Jul-15 23:33 144 31.1
2019-Jul-15 23:23 165 31.7
2019-Jul-15 23:13 115 31.7
2019-Jul-15 23:03 115 32.2
2019-Jul-15 22:53 296 32.2
2019-Jul-15 22:43 049 32.2
2019-Jul-15 22:33 352 32.2
2019-Jul-15 22:23 042 32.2
2019-Jul-15 22:13 302 32.2
2019-Jul-15 22:03 074 32.2
2019-Jul-15 21:53 030 32.8
2019-Jul-15 21:43 052 32.8
2019-Jul-15 21:33 057 32.8
2019-Jul-15 21:23 344 32.8
2019-Jul-15 21:13 298 32.8
2019-Jul-15 21:03 350 32.8
2019-Jul-15 20:53 015 32.8
2019-Jul-15 20:43 309 32.2
2019-Jul-15 20:33 326 32.2
2019-Jul-15 20:23 279 32.2
2019-Jul-15 20:13 284 32.8
2019-Jul-15 20:03 268 32.8
2019-Jul-15 19:53 252 32.8
2019-Jul-15 19:43 304 0 gusting 6 32.8
2019-Jul-15 19:33 292 32.8
2019-Jul-15 19:23 315 0 gusting 5 32.8
2019-Jul-15 19:13 288 32.8
2019-Jul-15 19:03 020 32.8
2019-Jul-15 18:53 274 0 gusting 4 32.8
2019-Jul-15 18:43 260 32.2
2019-Jul-15 18:33 277 32.2
2019-Jul-15 18:23 348 31.7
2019-Jul-15 18:13 297 31.7
2019-Jul-15 18:03 275 31.7
2019-Jul-15 17:53 263 30.6
2019-Jul-15 17:43 292 31.1
2019-Jul-15 17:33 229 31.7
2019-Jul-15 17:23 253 32.2
2019-Jul-15 17:13 260 33.3
2019-Jul-15 17:03 054 33.9
2019-Jul-15 16:53 139 34.4
2019-Jul-15 16:43 096 33.9
2019-Jul-15 16:33 036 33.9
2019-Jul-15 16:23 227 33.3
2019-Jul-15 16:13 200 32.8
2019-Jul-15 16:03 179 32.2
2019-Jul-15 15:53 227 32.2
2019-Jul-15 15:43 230 32.2
2019-Jul-15 15:33 184 32.2
2019-Jul-15 15:23 226 31.7
2019-Jul-15 15:13 185 31.1
2019-Jul-15 15:03 180 31.1
2019-Jul-15 14:53 210 31.1
2019-Jul-15 14:43 213 1 gusting 2 31.1
2019-Jul-15 14:33 213 31.1
2019-Jul-15 14:23 160 30.6
2019-Jul-15 14:13 234 30.6
2019-Jul-15 14:03 233 30.6
2019-Jul-15 13:53 174 30.0
2019-Jul-15 13:43 178 30.0
2019-Jul-15 13:33 194 30.0
2019-Jul-15 13:23 204 29.4
2019-Jul-15 13:13 218 29.4
2019-Jul-15 13:03 173 28.9
2019-Jul-15 12:53 195 28.9
2019-Jul-15 12:43 172 28.9
2019-Jul-15 12:33 165 28.3
2019-Jul-15 12:23 165 27.8
2019-Jul-15 12:13 118 26.7
2019-Jul-15 12:03 175 26.1
2019-Jul-15 11:53 162 25.6
2019-Jul-15 11:43 161 25.6
2019-Jul-15 11:33 161 25.0
2019-Jul-15 11:23 162 25.0
2019-Jul-15 11:13 161 25.0
2019-Jul-15 11:03 161 25.0
2019-Jul-15 10:53 161 25.0
2019-Jul-15 10:43 161 25.0
2019-Jul-15 10:33 161 25.0
2019-Jul-15 10:23 161 25.0
2019-Jul-15 10:13 161 24.4
2019-Jul-15 10:03 161 25.0
2019-Jul-15 09:53 161 25.0
2019-Jul-15 09:43 161 25.0
2019-Jul-15 09:33 161 25.0
2019-Jul-15 09:23 161 25.0
2019-Jul-15 09:13 161 25.6
2019-Jul-15 09:03 162 25.6
2019-Jul-15 08:53 162 25.6
2019-Jul-15 08:43 162 25.6
2019-Jul-15 08:33 162 25.6
2019-Jul-15 08:23 162 25.6
2019-Jul-15 08:13 162 25.6
2019-Jul-15 08:03 162 25.6
2019-Jul-15 07:53 162 26.1
2019-Jul-15 07:43 162 26.1
2019-Jul-15 07:33 162 26.1
2019-Jul-15 07:23 162 26.1
2019-Jul-15 07:13 162 26.1
2019-Jul-15 07:03 162 26.1
2019-Jul-15 06:53 162 26.7
2019-Jul-15 06:43 162 26.7
2019-Jul-15 06:33 162 26.7
2019-Jul-15 06:23 162 26.7
2019-Jul-15 06:13 162 26.7
2019-Jul-15 06:03 162 26.7
2019-Jul-15 05:53 162 26.7
2019-Jul-15 05:43 068 26.7
2019-Jul-15 05:33 068 26.7
2019-Jul-15 05:23 068 26.7
2019-Jul-15 05:13 068 27.2
2019-Jul-15 05:03 068 27.2
2019-Jul-15 04:53 068 27.2
2019-Jul-15 04:43 068 27.2
2019-Jul-15 04:33 068 27.8
2019-Jul-15 04:23 068 27.8
2019-Jul-15 04:13 068 27.8
2019-Jul-15 04:03 068 27.8